Terminal Aerodrome Forecast
Issued by NWS Albany, NY

Home | Current Version | Previous Version | Text Only | Print | Product List | Glossary On
Versions: 1 2 3 4 5 6 7 8 9 10 11 12 13 14 15 16 17 18 19 20 21 22 23 24 25 26 27 28 29 30 31 32 33 34 35 36 37 38 39 40 41 42 43 44 45 46 47 48 49 50
000
FTUS41 KALY 160543
TAFPOU
TAF
KPOU 160543Z 1606/1706 22008KT P6SM VCSH BKN070 WS020/23035KT
     FM161200 18005KT P6SM VCSH SCT020 BKN060
     FM161700 18004KT 6SM -SHRA BR BKN035
     FM162000 28006KT 6SM BR VCSH OVC035
     FM170300 VRB03KT P6SM SCT020 BKN035=

USA.gov is the U.S. government's official web portal to all federal, state and local government web resources and services.